• In Belarus
  • List of Countries
  • For 7 days
  • Water Temperature
  • Satellite Maps
  • Weather Map
  • Weather Widgets
  • user-avatar
    Login

    Hourly Weather Baden-Baden

    Today, 20 April, Saturday

    Time Temperature Precipitation Wind Pressure Humidity
    00:00 +12°C° 0 mm 1 mps 737 mmHg 70%
    01:00 +13°C° 0 mm 2 mps 737 mmHg 65%
    02:00 +12°C° 0 mm 1 mps 737 mmHg 66%
    03:00 +11°C° 0 mm 1 mps 737 mmHg 67%
    04:00 +11°C° 0 mm 1 mps 737 mmHg 68%
    05:00 +11°C° 0 mm 1 mps 737 mmHg 69%
    06:00 +12°C° 0 mm 1 mps 738 mmHg 70%
    07:00 +12°C° 0 mm 1 mps 738 mmHg 72%
    08:00 +14°C° 0 mm 2 mps 738 mmHg 65%
    09:00 +16°C° 0 mm 2 mps 738 mmHg 58%
    10:00 +18°C° 0 mm 3 mps 738 mmHg 51%
    11:00 +19°C° 0 mm 3 mps 737 mmHg 47%
    12:00 +21°C° 0 mm 4 mps 737 mmHg 43%
    13:00 +22°C° 0 mm 4 mps 737 mmHg 39%
    14:00 +22°C° 0 mm 4 mps 737 mmHg 39%
    15:00 +22°C° 0 mm 4 mps 737 mmHg 40%
    16:00 +22°C° 0 mm 4 mps 736 mmHg 40%
    17:00 +20°C° 0 mm 4 mps 736 mmHg 46%
    18:00 +18°C° 0 mm 3 mps 736 mmHg 52%
    19:00 +16°C° 0 mm 2 mps 735 mmHg 59%
    20:00 +15°C° 0 mm 2 mps 735 mmHg 61%
    21:00 +14°C° 0 mm 2 mps 735 mmHg 63%
    22:00 +13°C° 0 mm 2 mps 735 mmHg 65%
    23:00 +12°C° 0 mm 2 mps 735 mmHg 67%

    Tomorrow, 21 April, Sunday

    Time Temperature Precipitation Wind Pressure Humidity
    00:00 +10°C° 0 mm 2 mps 735 mmHg 68%
    01:00 +10°C° 0 mm 2 mps 735 mmHg 69%
    02:00 +9°C° 0 mm 2 mps 735 mmHg 70%
    03:00 +9°C° 0 mm 2 mps 734 mmHg 71%
    04:00 +8°C° 0 mm 2 mps 734 mmHg 72%
    05:00 +9°C° 0 mm 2 mps 734 mmHg 71%
    06:00 +9°C° 0 mm 2 mps 734 mmHg 70%
    07:00 +10°C° 0 mm 2 mps 734 mmHg 69%
    08:00 +13°C° 0 mm 2 mps 734 mmHg 62%
    09:00 +16°C° 0 mm 3 mps 733 mmHg 54%
    10:00 +18°C° 0 mm 3 mps 733 mmHg 46%
    11:00 +19°C° 0 mm 4 mps 733 mmHg 43%
    12:00 +20°C° 0 mm 4 mps 732 mmHg 39%
    13:00 +21°C° 0 mm 4 mps 732 mmHg 36%
    14:00 +22°C° 0 mm 4 mps 731 mmHg 37%
    15:00 +22°C° 0 mm 4 mps 731 mmHg 38%
    16:00 +22°C° 0 mm 4 mps 730 mmHg 39%
    17:00 +20°C° 0 mm 3 mps 730 mmHg 46%
    18:00 +18°C° 0 mm 3 mps 729 mmHg 53%
    19:00 +16°C° 0 mm 2 mps 729 mmHg 60%
    20:00 +15°C° 0 mm 2 mps 729 mmHg 63%
    21:00 +13°C° 0 mm 2 mps 729 mmHg 65%
    22:00 +12°C° 0 mm 2 mps 729 mmHg 67%
    23:00 +10°C° 0 mm 2 mps 729 mmHg 68%

    Day after tomorrow, 22 April, Monday

    Time Temperature Precipitation Wind Pressure Humidity
    00:00 +10°C° 0 mm 2 mps 728 mmHg 69%
    01:00 +9°C° 0 mm 2 mps 728 mmHg 70%
    02:00 +9°C° 0 mm 2 mps 728 mmHg 72%
    03:00 +8°C° 0 mm 2 mps 727 mmHg 73%
    04:00 +8°C° 0 mm 2 mps 727 mmHg 75%
    05:00 +8°C° 0 mm 2 mps 726 mmHg 75%
    06:00 +9°C° 0 mm 2 mps 726 mmHg 75%
    07:00 +10°C° 0 mm 2 mps 726 mmHg 75%
    08:00 +13°C° 0 mm 2 mps 725 mmHg 68%
    09:00 +15°C° 0 mm 2 mps 725 mmHg 62%
    10:00 +17°C° 0 mm 2 mps 724 mmHg 55%
    11:00 +19°C° 0 mm 3 mps 724 mmHg 52%
    12:00 +20°C° 0 mm 3 mps 723 mmHg 49%
    13:00 +22°C° 0 mm 4 mps 723 mmHg 47%
    14:00 +22°C° 0 mm 4 mps 722 mmHg 47%
    15:00 +22°C° 0 mm 4 mps 721 mmHg 48%
    16:00 +22°C° 0 mm 5 mps 721 mmHg 48%
    17:00 +21°C° 0 mm 4 mps 720 mmHg 53%
    18:00 +19°C° 0 mm 4 mps 720 mmHg 59%
    19:00 +18°C° 0 mm 4 mps 719 mmHg 64%
    20:00 +17°C° 0 mm 4 mps 719 mmHg 64%
    21:00 +14°C° 0 mm 4 mps 719 mmHg 64%
    22:00 +13°C° 0 mm 4 mps 719 mmHg 64%
    23:00 +13°C° 0 mm 4 mps 719 mmHg 66%

    23 April, Tuesday

    Time Temperature Precipitation Wind Pressure Humidity
    00:00 +12°C° 0 mm 3 mps 719 mmHg 69%
    01:00 +11°C° 0 mm 3 mps 718 mmHg 71%
    02:00 +10°C° 0 mm 3 mps 718 mmHg 74%
    03:00 +9°C° 0 mm 3 mps 718 mmHg 78%
    04:00 +9°C° 0 mm 2 mps 717 mmHg 81%
    05:00 +9°C° 0 mm 2 mps 717 mmHg 81%
    06:00 +9°C° 0 mm 2 mps 717 mmHg 81%
    07:00 +10°C° 0 mm 2 mps 717 mmHg 80%
    08:00 +13°C° 0 mm 2 mps 717 mmHg 74%
    09:00 +15°C° 0 mm 1 mps 717 mmHg 67%
    10:00 +18°C° 0 mm 1 mps 717 mmHg 60%
    11:00 +20°C° 0 mm 1 mps 717 mmHg 57%
    12:00 +21°C° 0 mm 1 mps 717 mmHg 54%
    13:00 +22°C° 0 mm 1 mps 717 mmHg 51%
    14:00 +22°C° 0.1 mm 1 mps 716 mmHg 53%
    15:00 +22°C° 0.1 mm 1 mps 716 mmHg 54%
    16:00 +22°C° 0.1 mm 1 mps 716 mmHg 56%
    17:00 +20°C° 0.2 mm 1 mps 716 mmHg 62%
    18:00 +17°C° 0.2 mm 0 mps 716 mmHg 68%
    19:00 +16°C° 0.2 mm 0 mps 716 mmHg 74%
    20:00 +15°C° 0 mm 0 mps 716 mmHg 77%
    21:00 +15°C° 0 mm 1 mps 717 mmHg 80%
    22:00 +14°C° 0 mm 1 mps 717 mmHg 83%
    23:00 +14°C° 0 mm 1 mps 718 mmHg 84%

    24 April, Wednesday

    Time Temperature Precipitation Wind Pressure Humidity
    00:00 +13°C° 0 mm 2 mps 718 mmHg 85%
    01:00 +13°C° 0 mm 2 mps 719 mmHg 86%
    02:00 +13°C° 0 mm 2 mps 719 mmHg 85%
    03:00 +12°C° 0 mm 3 mps 719 mmHg 84%
    04:00 +12°C° 0 mm 3 mps 720 mmHg 82%
    05:00 +12°C° 0 mm 3 mps 720 mmHg 81%
    06:00 +13°C° 0 mm 3 mps 720 mmHg 80%
    07:00 +13°C° 0 mm 3 mps 721 mmHg 79%
    08:00 +15°C° 0.2 mm 2 mps 721 mmHg 74%
    09:00 +17°C° 0.2 mm 2 mps 721 mmHg 69%
    10:00 +18°C° 0.2 mm 2 mps 722 mmHg 64%
    11:00 +19°C° 0.3 mm 2 mps 722 mmHg 61%
    12:00 +20°C° 0.3 mm 2 mps 722 mmHg 59%
    13:00 +21°C° 0.3 mm 2 mps 722 mmHg 56%
    14:00 +21°C° 1.3 mm 2 mps 722 mmHg 60%
    15:00 +21°C° 1.3 mm 2 mps 722 mmHg 64%
    16:00 +20°C° 1.3 mm 2 mps 721 mmHg 68%
    17:00 +18°C° 2.3 mm 2 mps 722 mmHg 76%
    18:00 +16°C° 2.3 mm 2 mps 722 mmHg 83%
    19:00 +14°C° 2.3 mm 2 mps 722 mmHg 91%
    20:00 +14°C° 0.2 mm 2 mps 723 mmHg 90%
    21:00 +14°C° 0.2 mm 1 mps 724 mmHg 89%
    22:00 +13°C° 0.2 mm 1 mps 724 mmHg 89%
    23:00 +13°C° 0.1 mm 1 mps 724 mmHg 88%

    25 April, Thursday

    Time Temperature Precipitation Wind Pressure Humidity
    00:00 +13°C° 0.1 mm 1 mps 725 mmHg 88%
    01:00 +13°C° 0.1 mm 1 mps 725 mmHg 87%
    02:00 +13°C° 0.6 mm 1 mps 725 mmHg 88%
    03:00 +12°C° 0.6 mm 1 mps 725 mmHg 90%
    04:00 +12°C° 0.6 mm 1 mps 725 mmHg 91%
    05:00 +12°C° 0.8 mm 1 mps 725 mmHg 91%
    06:00 +12°C° 0.8 mm 1 mps 725 mmHg 91%
    07:00 +12°C° 0.8 mm 2 mps 725 mmHg 92%
    08:00 +13°C° 0.1 mm 2 mps 725 mmHg 86%
    09:00 +14°C° 0.1 mm 2 mps 725 mmHg 81%
    10:00 +16°C° 0.1 mm 2 mps 725 mmHg 76%
    11:00 +17°C° 0 mm 2 mps 724 mmHg 69%
    12:00 +18°C° 0 mm 3 mps 724 mmHg 62%
    13:00 +20°C° 0 mm 3 mps 724 mmHg 56%
    14:00 +20°C° 0.1 mm 3 mps 723 mmHg 57%
    15:00 +21°C° 0.1 mm 3 mps 723 mmHg 58%
    16:00 +21°C° 0.1 mm 3 mps 722 mmHg 59%
    17:00 +18°C° 1.1 mm 4 mps 722 mmHg 69%
    18:00 +14°C° 1.1 mm 4 mps 722 mmHg 79%
    19:00 +10°C° 1.1 mm 4 mps 722 mmHg 89%
    20:00 +10°C° 0 mm 3 mps 723 mmHg 89%
    21:00 +9°C° 0 mm 3 mps 724 mmHg 90%
    22:00 +9°C° 0 mm 3 mps 724 mmHg 90%
    23:00 +8°C° 0.3 mm 3 mps 725 mmHg 90%
    Show more